Weather History for Tyler, TX

Change the Weather History Date:

Tuesday, December 25, 2012

  Actual Average Record
Temperature  
Mean Temperature 43 °F 47 °F  
Max Temperature 54 °F 56 °F 83 °F (1955)
Min Temperature 31 °F 38 °F 4 °F (1983)
Degree Days  
Heating Degree Days 22 18  
Month to date heating degree days 246 418  
Since 1 July heating degree days 568 792  
Cooling Degree Days 0 0  
Month to date cooling degree days 28 0  
Year to date cooling degree days 3026 2411  
Moisture  
Dew Point 37 °F    
Average Humidity 76    
Maximum Humidity 92    
Minimum Humidity 59    
Precipitation  
Precipitation 0.98 in 0.15 in 1.68 in (2000)
Month to date precipitation 2.27 3.45  
Year to date precipitation 34.10 45.00  
Snow  
Snow 0.00 in - - ()
Month to date snowfall 0.0  
Since 1 July snowfall 0.0  
Snow Depth -    
Sea Level Pressure  
Sea Level Pressure 29.79 in    
Wind  
Wind Speed 14 mph (NNW)    
Max Wind Speed 31 mph    
Max Gust Speed 43 mph    
Visibility 6 miles    
Events Rain , Snow , Thunderstorm    
T = Trace of Precipitation, MM = Missing Value Source: NWS Daily Summary

Daily Weather History Graph

Daily Weather History Graph

Search for Another Location

Airport:

Trip Planner

Search our weather history database for the weather conditions in past years. The results will help you decide how hot, cold, wet, or windy it might be!

Date:

Astronomy

Dec. 25, 2012 Rise Set
Actual Time 7:21 AM CST 5:23 PM CST
Civil Twilight 6:53 AM CST 5:50 PM CST
Nautical Twilight 6:23 AM CST 6:20 PM CST
Astronomical Twilight 5:53 AM CST 6:50 PM CST
Moon 3:29 PM CST (12/25) 4:56 AM CST (12/25)
Length of Visible Light 10h 56m
Length of Day
10h 02m
Waxing Gibbous, 94% of the Moon is Illuminated
Dec 25
Waxing Gibbous
Dec 28
Full
Jan 4
Last Quarter
Jan 11
New
Jan 18
First Quarter

Hourly Weather History & Observations

Time (CST) Temp. Windchill Dew Point Humidity Pressure Visibility Wind Dir Wind Speed Gust Speed Precip Events Conditions
12:53 AM 50.0 °F - 39.0 °F 66% 29.79 in 10.0 mi East 5.8 mph - N/A   Overcast
1:53 AM 53.1 °F - 39.9 °F 61% 29.75 in 10.0 mi East 9.2 mph - N/A   Mostly Cloudy
2:53 AM 53.1 °F - 41.0 °F 64% 29.72 in 10.0 mi East 8.1 mph - N/A   Overcast
3:53 AM 53.1 °F - 43.0 °F 69% 29.68 in 10.0 mi ENE 3.5 mph - 0.00 in   Overcast
4:25 AM 53.6 °F - 42.8 °F 67% 29.70 in 10.0 mi SE 12.7 mph - N/A   Overcast
4:53 AM 52.0 °F - 46.0 °F 80% 29.69 in 10.0 mi East 9.2 mph - N/A   Mostly Cloudy
5:25 AM 51.8 °F - 46.4 °F 82% 29.69 in 10.0 mi North 11.5 mph - N/A Thunderstorm Overcast
5:50 AM 51.8 °F - 48.2 °F 88% 29.67 in 8.0 mi NNE 8.1 mph - 0.00 in Rain , Thunderstorm Light Rain
5:53 AM 52.0 °F - 48.0 °F 86% 29.67 in 7.0 mi NNE 6.9 mph - 0.01 in Rain , Thunderstorm Light Rain
6:23 AM 51.8 °F - 48.2 °F 88% 29.68 in 4.0 mi NNE 10.4 mph - 0.05 in Rain , Thunderstorm Light Thunderstorms and Rain
6:53 AM 51.1 °F - 48.9 °F 92% 29.64 in 6.0 mi NE 12.7 mph - 0.11 in Rain Light Rain
7:01 AM 51.8 °F - 48.2 °F 88% 29.64 in 7.0 mi NE 12.7 mph 19.6 mph 0.00 in Rain , Thunderstorm Light Thunderstorms and Rain
7:51 AM 50.0 °F - 46.4 °F 87% 29.64 in 2.0 mi NNE 19.6 mph 27.6 mph 0.27 in Rain , Thunderstorm Heavy Thunderstorms and Rain
7:53 AM 48.9 °F - 46.9 °F 93% 29.63 in 2.5 mi NNE 19.6 mph 27.6 mph 0.27 in Rain , Thunderstorm Heavy Thunderstorms and Rain
8:01 AM 48.2 °F - 46.4 °F 93% 29.62 in 6.0 mi NNE 18.4 mph 28.8 mph 0.01 in Rain , Thunderstorm Light Rain
8:22 AM 48.2 °F - 44.6 °F 87% 29.61 in 10.0 mi ENE 21.9 mph 31.1 mph 0.02 in Rain Light Rain
8:32 AM 46.4 °F 38.7 °F 44.6 °F 93% 29.63 in 10.0 mi East 20.7 mph 29.9 mph 0.02 in Rain , Thunderstorm Light Thunderstorms and Rain
8:53 AM 46.9 °F - 44.1 °F 90% 29.60 in 6.0 mi ENE 18.4 mph 31.1 mph 0.11 in Rain , Thunderstorm Rain
9:24 AM 46.4 °F 38.5 °F 42.8 °F 87% 29.59 in 6.0 mi ENE 21.9 mph 33.4 mph 0.08 in Rain , Thunderstorm Thunderstorms and Rain
9:53 AM 46.0 °F 39.0 °F 44.1 °F 93% 29.59 in 6.0 mi ENE 17.3 mph 28.8 mph 0.19 in Rain Heavy Rain
10:02 AM 46.4 °F 41.5 °F 44.6 °F 93% 29.60 in 5.0 mi ENE 10.4 mph 23.0 mph 0.04 in Rain , Thunderstorm Heavy Rain
10:13 AM 46.4 °F 44.3 °F 44.6 °F 93% 29.62 in 9.0 mi Variable 4.6 mph 17.3 mph 0.06 in Rain , Thunderstorm Light Rain
10:48 AM 46.4 °F 42.9 °F 42.8 °F 87% 29.64 in 10.0 mi North 6.9 mph 18.4 mph 0.09 in Rain Light Rain
10:53 AM 46.9 °F - 44.1 °F 90% 29.63 in 10.0 mi North 6.9 mph - 0.09 in   Overcast
11:53 AM 46.0 °F 42.5 °F 43.0 °F 89% 29.61 in 10.0 mi NNE 6.9 mph - N/A   Overcast
12:53 PM 46.0 °F 41.9 °F 43.0 °F 89% 29.63 in 10.0 mi NW 8.1 mph - N/A   Overcast
1:07 PM 46.4 °F 44.3 °F 42.8 °F 87% 29.64 in 10.0 mi West 4.6 mph - N/A   Overcast
1:53 PM 46.0 °F 42.5 °F 44.1 °F 93% 29.65 in 3.0 mi West 6.9 mph - 0.07 in Rain Heavy Rain
2:53 PM 43.0 °F 32.7 °F 39.0 °F 86% 29.69 in 10.0 mi WNW 28.8 mph 38.0 mph 0.06 in Rain Light Rain
3:53 PM 37.0 °F 24.9 °F 34.0 °F 89% 29.75 in 10.0 mi NW 27.6 mph 34.5 mph 0.01 in Rain Light Rain
4:16 PM 35.6 °F 25.2 °F 32.0 °F 87% 29.76 in 2.5 mi NW 18.4 mph 36.8 mph 0.01 in Snow Light Snow
4:53 PM 33.1 °F 23.0 °F 32.0 °F 96% 29.79 in 1.5 mi NNW 15.0 mph 24.2 mph 0.05 in Snow Light Snow
5:07 PM 33.8 °F 22.2 °F 32.0 °F 93% 29.80 in 2.5 mi NNW 20.7 mph 26.5 mph 0.01 in Snow Light Snow
5:14 PM 33.8 °F 23.9 °F 32.0 °F 93% 29.81 in 3.0 mi NW 15.0 mph 25.3 mph 0.01 in Snow Light Snow
5:27 PM 33.8 °F 21.9 °F 32.0 °F 93% 29.82 in 1.8 mi NW 21.9 mph 26.5 mph 0.01 in Snow Light Snow
5:34 PM 33.8 °F 22.8 °F 32.0 °F 93% 29.83 in 3.0 mi NW 18.4 mph 26.5 mph 0.01 in Snow Light Snow
5:53 PM 33.1 °F 22.2 °F 30.0 °F 89% 29.85 in 5.0 mi NW 17.3 mph 27.6 mph 0.01 in Snow Light Snow
6:05 PM 32.0 °F 20.5 °F 30.2 °F 93% 29.86 in 5.0 mi NW 18.4 mph 26.5 mph 0.00 in Snow Light Snow
6:27 PM 32.0 °F 21.2 °F 28.4 °F 87% 29.89 in 2.5 mi NW 16.1 mph 28.8 mph 0.00 in Snow Light Snow
6:36 PM 32.0 °F 21.6 °F 28.4 °F 87% 29.90 in 2.5 mi NW 15.0 mph 20.7 mph 0.00 in Snow Light Snow
6:49 PM 30.2 °F 18.9 °F 28.4 °F 93% 29.91 in 1.8 mi NW 16.1 mph 24.2 mph 0.00 in Snow Light Snow
6:53 PM 30.9 °F 20.2 °F 28.9 °F 92% 29.92 in 2.0 mi NW 15.0 mph 23.0 mph 0.00 in Snow Light Snow
7:01 PM 30.2 °F 17.4 °F 28.4 °F 93% 29.92 in 2.5 mi NW 20.7 mph 26.5 mph 0.00 in Snow Light Snow
7:21 PM 30.2 °F 19.3 °F 28.4 °F 93% 29.93 in 3.0 mi WNW 15.0 mph - 0.00 in Snow Light Snow
7:34 PM 30.2 °F 19.3 °F 28.4 °F 93% 29.95 in 5.0 mi NW 15.0 mph 24.2 mph 0.00 in   Overcast
7:53 PM 30.9 °F 19.1 °F 28.0 °F 89% 29.96 in 3.0 mi WNW 18.4 mph 25.3 mph 0.00 in Snow Light Snow
8:01 PM 30.2 °F 18.5 °F 28.4 °F 93% 29.96 in 2.0 mi NW 17.3 mph 25.3 mph 0.00 in Snow Light Snow
8:08 PM 30.2 °F 18.1 °F 28.4 °F 93% 29.96 in 2.0 mi WNW 18.4 mph - 0.00 in Snow Light Snow
8:23 PM 30.2 °F 18.5 °F 28.4 °F 93% 29.97 in 2.0 mi NW 17.3 mph 24.2 mph 0.00 in Snow Light Snow
8:34 PM 30.2 °F 18.9 °F 28.4 °F 93% 29.97 in 2.5 mi NW 16.1 mph 24.2 mph 0.00 in Snow Light Snow
8:38 PM 30.2 °F 18.5 °F 28.4 °F 93% 29.98 in 3.0 mi NW 17.3 mph 23.0 mph 0.00 in Snow Light Snow
8:53 PM 30.9 °F 19.4 °F 28.9 °F 92% 29.99 in 4.0 mi NW 17.3 mph 24.2 mph 0.00 in Rain Light Freezing Rain
9:20 PM 30.2 °F 18.5 °F 28.4 °F 93% 29.99 in 4.0 mi NW 17.3 mph 25.3 mph 0.00 in Snow Light Snow
9:51 PM 30.2 °F 19.8 °F 28.4 °F 93% 30.01 in 6.0 mi NW 13.8 mph 24.2 mph 0.00 in Rain Light Freezing Rain
9:53 PM 32.0 °F 21.6 °F 28.0 °F 85% 30.01 in 7.0 mi NW 15.0 mph 23.0 mph 0.00 in Rain Light Freezing Rain
10:19 PM 32.0 °F 20.5 °F 28.4 °F 87% 30.02 in 7.0 mi NW 18.4 mph 25.3 mph 0.00 in   Overcast
10:53 PM 30.9 °F 18.7 °F 27.0 °F 85% 30.05 in 8.0 mi NW 19.6 mph 28.8 mph 0.00 in   Overcast
11:53 PM 30.9 °F 19.1 °F 26.1 °F 82% 30.06 in 10.0 mi NW 18.4 mph 27.6 mph N/A   Overcast